User: anonymous
Location: Pulvis Stellarum Observatory
(41.6962°N, 71.4263°W)
Time: 07:24:22
(UTC-04:00)
Language:

Cosmos 1758 - Orbit

View from above orbital plane
View from above orbital plane
View from above satellite
View from above satellite

Ground track
Ground track

The orbit data is extracted from the following two-line orbital elements,

1 16791U 86046A   14233.76412656  .00000907  00000-0  68399-4 0  1074
2 16791 082.4733 314.3845 0017043 354.4534 005.6499 15.01210207530868
Epoch (UTC): 21 August 2014 18:20:20
Eccentricity: 0.0017043
inclination: 82.4733°
perigee height: 551 km
apogee height: 575 km
right ascension of ascending node: 314.3845°
argument of perigee: 354.4534°
revolutions per day: 15.01210207
mean anomaly at epoch: 5.6499°
orbit number at epoch: 53086

The dashed part of the orbit path shows where the satellite is in the earth's shadow,  

DLR